When you browse on this site, cookies collect data to enhance your experience and personalize the content and advertising you see.
Visit our Privacy Policy to learn more. By continuing to use the site, you agree to this use of cookies and data.
  • In United Kingdom
  • List of Countries
  • For 7 days
  • Water Temperature
  • Weather Map
  • Weather Widgets
  • user-avatar
    Login

    Hourly Weather Bryzgiel

    Today, 14 December, Saturday

    Time Temperature Precipitation Wind Pressure Humidity
    00:00 -1°C° 0 mm 7 mps 734 mmHg 83%
    01:00 -1°C° 0 mm 6 mps 734 mmHg 84%
    02:00 -1°C° 0 mm 6 mps 734 mmHg 83%
    03:00 -1°C° 0 mm 6 mps 734 mmHg 84%
    04:00 -1°C° 0 mm 6 mps 734 mmHg 86%
    05:00 -1°C° 0 mm 6 mps 734 mmHg 87%
    06:00 +1°C° 0 mm 6 mps 734 mmHg 87%
    07:00 0°C° 0 mm 7 mps 734 mmHg 87%
    08:00 +1°C° 0 mm 6 mps 734 mmHg 85%
    09:00 +1°C° 0 mm 6 mps 735 mmHg 84%
    10:00 0°C° 0 mm 7 mps 735 mmHg 84%
    11:00 +2°C° 0 mm 7 mps 735 mmHg 84%
    12:00 +2°C° 0.1 mm 7 mps 734 mmHg 85%
    13:00 +2°C° 0.1 mm 7 mps 734 mmHg 87%
    14:00 +2°C° 0.1 mm 6 mps 734 mmHg 88%
    15:00 +2°C° 0.1 mm 6 mps 734 mmHg 89%
    16:00 +2°C° 0.1 mm 6 mps 734 mmHg 90%
    17:00 +2°C° 0.1 mm 5 mps 734 mmHg 90%
    18:00 +2°C° 0.1 mm 5 mps 734 mmHg 90%
    19:00 +2°C° 0.1 mm 5 mps 734 mmHg 90%
    20:00 +3°C° 0.1 mm 4 mps 734 mmHg 90%
    21:00 +3°C° 0 mm 4 mps 734 mmHg 90%
    22:00 +2°C° 0 mm 5 mps 733 mmHg 91%
    23:00 +1°C° 0 mm 5 mps 733 mmHg 91%

    Tomorrow, 15 December, Sunday

    Time Temperature Precipitation Wind Pressure Humidity
    00:00 +1°C° 0.5 mm 5 mps 733 mmHg 93%
    01:00 +1°C° 0.5 mm 5 mps 734 mmHg 94%
    02:00 +1°C° 0.5 mm 6 mps 734 mmHg 95%
    03:00 +1°C° 0.3 mm 6 mps 734 mmHg 92%
    04:00 +1°C° 0.3 mm 6 mps 735 mmHg 88%
    05:00 0°C° 0.3 mm 7 mps 735 mmHg 84%
    06:00 +1°C° 0 mm 6 mps 736 mmHg 84%
    07:00 +1°C° 0 mm 6 mps 736 mmHg 83%
    08:00 +1°C° 0 mm 6 mps 737 mmHg 83%
    09:00 +1°C° 0 mm 6 mps 738 mmHg 81%
    10:00 +1°C° 0 mm 6 mps 738 mmHg 80%
    11:00 +2°C° 0 mm 5 mps 739 mmHg 79%
    12:00 +2°C° 0 mm 6 mps 740 mmHg 78%
    13:00 +2°C° 0 mm 6 mps 740 mmHg 76%
    14:00 +2°C° 0 mm 6 mps 741 mmHg 75%
    15:00 +1°C° 0 mm 5 mps 741 mmHg 77%
    16:00 +1°C° 0 mm 5 mps 741 mmHg 80%
    17:00 +1°C° 0 mm 4 mps 741 mmHg 82%
    18:00 +1°C° 0.4 mm 5 mps 740 mmHg 84%
    19:00 +1°C° 0.4 mm 5 mps 740 mmHg 87%
    20:00 +1°C° 0.4 mm 6 mps 740 mmHg 89%
    21:00 +1°C° 0.1 mm 5 mps 740 mmHg 89%
    22:00 +2°C° 0.1 mm 5 mps 741 mmHg 89%
    23:00 +2°C° 0.1 mm 5 mps 741 mmHg 90%

    Day after tomorrow, 16 December, Monday

    Time Temperature Precipitation Wind Pressure Humidity
    00:00 +2°C° 0 mm 5 mps 742 mmHg 88%
    01:00 +2°C° 0 mm 5 mps 743 mmHg 87%
    02:00 +1°C° 0 mm 5 mps 743 mmHg 86%
    03:00 +1°C° 0 mm 5 mps 744 mmHg 85%
    04:00 +1°C° 0 mm 5 mps 744 mmHg 85%
    05:00 +1°C° 0 mm 6 mps 745 mmHg 85%
    06:00 +1°C° 0 mm 5 mps 745 mmHg 85%
    07:00 +1°C° 0 mm 5 mps 746 mmHg 86%
    08:00 0°C° 0 mm 5 mps 746 mmHg 86%
    09:00 +1°C° 0 mm 5 mps 747 mmHg 86%
    10:00 +1°C° 0 mm 4 mps 747 mmHg 85%
    11:00 +1°C° 0 mm 4 mps 748 mmHg 84%
    12:00 +3°C° 0 mm 4 mps 748 mmHg 82%
    13:00 +3°C° 0 mm 4 mps 748 mmHg 80%
    14:00 +4°C° 0 mm 3 mps 748 mmHg 78%
    15:00 +3°C° 0 mm 3 mps 748 mmHg 83%
    16:00 +3°C° 0 mm 3 mps 748 mmHg 88%
    17:00 +2°C° 0 mm 3 mps 748 mmHg 93%
    18:00 +2°C° 0 mm 3 mps 748 mmHg 94%
    19:00 +2°C° 0 mm 3 mps 748 mmHg 94%
    20:00 +3°C° 0 mm 3 mps 748 mmHg 94%
    21:00 +3°C° 0 mm 3 mps 748 mmHg 94%
    22:00 +3°C° 0 mm 3 mps 748 mmHg 93%
    23:00 +4°C° 0 mm 3 mps 748 mmHg 92%

    17 December, Tuesday

    Time Temperature Precipitation Wind Pressure Humidity
    00:00 +4°C° 0 mm 3 mps 748 mmHg 91%
    01:00 +4°C° 0 mm 3 mps 748 mmHg 89%
    02:00 +4°C° 0 mm 3 mps 747 mmHg 87%
    03:00 +4°C° 0 mm 3 mps 747 mmHg 88%
    04:00 +4°C° 0 mm 3 mps 747 mmHg 89%
    05:00 +4°C° 0 mm 3 mps 747 mmHg 90%
    06:00 +3°C° 0 mm 3 mps 746 mmHg 91%
    07:00 +3°C° 0 mm 3 mps 746 mmHg 92%
    08:00 +3°C° 0 mm 3 mps 746 mmHg 92%
    09:00 +3°C° 0 mm 3 mps 746 mmHg 91%
    10:00 +4°C° 0 mm 3 mps 746 mmHg 89%
    11:00 +4°C° 0 mm 4 mps 746 mmHg 88%
    12:00 +4°C° 0 mm 4 mps 746 mmHg 86%
    13:00 +5°C° 0 mm 4 mps 746 mmHg 85%
    14:00 +5°C° 0 mm 4 mps 745 mmHg 84%
    15:00 +5°C° 0 mm 3 mps 745 mmHg 87%
    16:00 +4°C° 0 mm 3 mps 745 mmHg 89%
    17:00 +4°C° 0 mm 3 mps 745 mmHg 92%
    18:00 +4°C° 0 mm 3 mps 746 mmHg 92%
    19:00 +4°C° 0 mm 4 mps 746 mmHg 92%
    20:00 +4°C° 0 mm 4 mps 746 mmHg 92%
    21:00 +4°C° 0 mm 4 mps 746 mmHg 92%
    22:00 +4°C° 0 mm 4 mps 746 mmHg 92%
    23:00 +4°C° 0 mm 3 mps 746 mmHg 92%

    18 December, Wednesday

    Time Temperature Precipitation Wind Pressure Humidity
    00:00 +4°C° 0 mm 3 mps 746 mmHg 92%
    01:00 +4°C° 0 mm 3 mps 746 mmHg 92%
    02:00 +4°C° 0 mm 3 mps 746 mmHg 92%
    03:00 +4°C° 0 mm 3 mps 746 mmHg 92%
    04:00 +4°C° 0 mm 3 mps 746 mmHg 93%
    05:00 +4°C° 0 mm 3 mps 746 mmHg 93%
    06:00 +4°C° 0 mm 3 mps 746 mmHg 93%
    07:00 +3°C° 0 mm 3 mps 746 mmHg 93%
    08:00 +3°C° 0 mm 3 mps 746 mmHg 94%
    09:00 +4°C° 0 mm 3 mps 746 mmHg 93%
    10:00 +4°C° 0 mm 4 mps 746 mmHg 92%
    11:00 +4°C° 0 mm 4 mps 747 mmHg 91%
    12:00 +5°C° 0 mm 4 mps 746 mmHg 88%
    13:00 +6°C° 0 mm 4 mps 746 mmHg 85%
    14:00 +6°C° 0 mm 4 mps 746 mmHg 82%
    15:00 +6°C° 0 mm 4 mps 746 mmHg 84%
    16:00 +5°C° 0 mm 4 mps 746 mmHg 86%
    17:00 +4°C° 0 mm 4 mps 747 mmHg 88%
    18:00 +4°C° 0 mm 4 mps 747 mmHg 88%
    19:00 +4°C° 0 mm 4 mps 747 mmHg 89%
    20:00 +4°C° 0 mm 4 mps 747 mmHg 89%
    21:00 +4°C° 0 mm 4 mps 748 mmHg 88%
    22:00 +4°C° 0 mm 4 mps 748 mmHg 88%
    23:00 +4°C° 0 mm 4 mps 749 mmHg 87%

    19 December, Thursday

    Time Temperature Precipitation Wind Pressure Humidity
    00:00 +4°C° 0 mm 3 mps 749 mmHg 87%
    01:00 +3°C° 0 mm 3 mps 749 mmHg 86%
    02:00 +3°C° 0 mm 2 mps 750 mmHg 86%
    03:00 +3°C° 0 mm 2 mps 750 mmHg 88%
    04:00 +3°C° 0 mm 2 mps 750 mmHg 90%
    05:00 +2°C° 0 mm 2 mps 750 mmHg 93%
    06:00 +3°C° 0 mm 1 mps 751 mmHg 93%
    07:00 +3°C° 0 mm 1 mps 751 mmHg 94%
    08:00 +3°C° 0 mm 1 mps 751 mmHg 94%
    09:00 +3°C° 0 mm 1 mps 752 mmHg 93%
    10:00 +4°C° 0 mm 1 mps 752 mmHg 92%
    11:00 +4°C° 0 mm 1 mps 752 mmHg 90%
    12:00 +4°C° 0 mm 1 mps 752 mmHg 89%
    13:00 +3°C° 0 mm 0 mps 752 mmHg 88%
    14:00 +4°C° 0 mm 0 mps 752 mmHg 86%
    15:00 +3°C° 0 mm 0 mps 752 mmHg 88%
    16:00 +3°C° 0 mm 1 mps 752 mmHg 90%
    17:00 +3°C° 0 mm 1 mps 752 mmHg 92%
    18:00 +2°C° 0 mm 1 mps 752 mmHg 93%
    19:00 +2°C° 0 mm 1 mps 752 mmHg 94%
    20:00 +1°C° 0 mm 2 mps 752 mmHg 94%
    21:00 +1°C° 0 mm 2 mps 752 mmHg 95%
    22:00 -1°C° 0 mm 2 mps 752 mmHg 95%
    23:00 -1°C° 0 mm 2 mps 752 mmHg 96%
    Show more